This is the latest recevied weather packets stored in our database for station/object SR5NLK-1. If no packets are shown the sender has not sent any weather packets the latest 10 day(s).
| Time | Temp. | Humidity | Pressure | Rain* | Wind** | Luminosity | Snow |
|---|---|---|---|---|---|---|---|
| 1787403911 | 18.89° C | 69% | 1083.1 hPa | 0 mm | - | - | - |
| 1787403611 | 19.44° C | 67% | 1075.2 hPa | 0 mm | - | - | - |
| 1787403311 | 20° C | 65% | 1088 hPa | 0 mm | - | - | - |
| 1787403043 | 20.56° C | 64% | 1050.4 hPa | 0 mm | - | - | - |
| 1787403011 | 20.56° C | 64% | 1050.4 hPa | 0 mm | - | - | - |
| 1787402711 | 20.56° C | 64% | 1056 hPa | 0 mm | - | - | - |
| 1787402473 | 20.56° C | 63% | 1088.8 hPa | 0 mm | - | - | - |
| 1787402411 | 20.56° C | 63% | 1088.8 hPa | 0 mm | - | - | - |
| 1787402111 | 20.56° C | 63% | 1051.3 hPa | 0 mm | - | - | - |
| 1787402051 | 21.11° C | 62% | 1081.5 hPa | 0 mm | - | - | - |
| 1787401881 | 20.56° C | 63% | 1022.5 hPa | 0 mm | - | - | - |
| 1787401811 | 20.56° C | 63% | 1022.5 hPa | 0 mm | - | - | - |
| 1787401511 | 20° C | 65% | 1027.4 hPa | 0 mm | - | - | - |
| 1787401211 | 19.44° C | 65% | 1086.6 hPa | 0 mm | - | - | - |
| 1787400911 | 19.44° C | 65% | 1065.8 hPa | 0 mm | - | - | - |
| 1787400611 | 18.89° C | 65% | 1072.1 hPa | 0 mm | - | - | - |
| 1787400311 | 19.44° C | 64% | 991.8 hPa | 0 mm | - | - | - |
| 1787400071 | 19.44° C | 64% | 1036.6 hPa | 0 mm | - | - | - |
| 1787400045 | 19.44° C | 63% | 1038 hPa | 0 mm | - | - | - |
| 1787400011 | 19.44° C | 63% | 1038 hPa | 0 mm | - | - | - |
| 1787399711 | 19.44° C | 63% | 1087.7 hPa | 0 mm | - | - | - |
| 1787399411 | 20° C | 62% | 1070.5 hPa | 0 mm | - | - | - |
| 1787399111 | 20.56° C | 59% | 1062.7 hPa | 0 mm | - | - | - |
| 1787398849 | 20.56° C | 58% | 1046 hPa | 0 mm | - | - | - |
| 1787398812 | 20.56° C | 58% | 1046 hPa | 0 mm | - | - | - |
* Rain latest hour (hover to see other rain measurements)
** Current wind speed in m/s (hover to see current wind gust speed)